Big Piney, WY

10:35 AM MST on February 10, 2016 (GMT -0700)
Big Piney-Marbleton

Weather History for KBPI - January, 2012

Change the Weather History Date:

Saturday, January 21, 2012

  Actual Average Record
Temperature  
Mean Temperature 30 °F 11 °F  
Max Temperature 33 °F 26 °F 44 °F (1977)
Min Temperature 25 °F -4 °F -23 °F (2008)
Degree Days  
Heating Degree Days 36 54  
Month to date heating degree days 1134  
Since 1 July heating degree days 5573  
Cooling Degree Days 0 0  
Month to date cooling degree days 0  
Year to date cooling degree days 0  
Moisture  
Dew Point 29 °F    
Average Humidity 93    
Maximum Humidity 100    
Minimum Humidity 72    
Precipitation  
Precipitation 0.12 in 0.01 in 0.20 in (2012)
Month to date precipitation 0.22  
Year to date precipitation 0.22  
Sea Level Pressure  
Sea Level Pressure 29.49 in    
Wind  
Wind Speed 7 mph (South)    
Max Wind Speed 17 mph    
Max Gust Speed -    
Visibility 4 miles    
Events Fog , Snow    
T = Trace of Precipitation, MM = Missing Value Source: NWS Daily Summary

Daily Weather History Graph

Daily Weather History Graph

Search for Another Location

Airport or City:

Trip Planner

Search our weather history database for the weather conditions in past years. The results will help you decide how hot, cold, wet, or windy it might be!

Date:

Astronomy

Jan. 21, 2012 Rise Set
Actual Time 7:44 AM MST 5:19 PM MST
Civil Twilight 7:13 AM MST 5:50 PM MST
Nautical Twilight 6:39 AM MST 6:24 PM MST
Astronomical Twilight 6:05 AM MST 6:58 PM MST
Moon 6:19 AM MST (1/21) 3:58 PM MST (1/21)
Length of Visible Light 10h 36m
Length of Day
9h 34m
Waning Crescent, 3% of the Moon is Illuminated
Jan 21
Waning Crescent
Jan 23
New
Jan 30
First Quarter
Feb 7
Full
Feb 14
Last Quarter

Hourly Weather History & Observations

Time (MST) Temp. Windchill Dew Point Humidity Pressure Visibility Wind Dir Wind Speed Gust Speed Precip Events Conditions
12:53 AM 30.2 °F 26.7 °F 24.8 °F 80% 29.78 in 10.0 mi ESE 3.5 mph - N/A   Overcast
1:53 AM 33.1 °F 28.7 °F 25.0 °F 72% 29.69 in 10.0 mi SSE 4.6 mph - N/A   Overcast
2:53 AM 33.1 °F 28.7 °F 26.1 °F 75% 29.66 in 10.0 mi SE 4.6 mph - N/A   Overcast
3:53 AM 33.1 °F 25.5 °F 27.0 °F 78% 29.65 in 7.0 mi South 9.2 mph - N/A   Overcast
4:27 AM 32.0 °F 24.2 °F 28.4 °F 87% 29.69 in 5.0 mi South 9.2 mph - 0.00 in Snow Light Snow
4:31 AM 32.0 °F 24.8 °F 28.4 °F 87% 29.69 in 2.5 mi South 8.1 mph - 0.00 in Snow Light Snow
4:40 AM 30.2 °F 21.3 °F 28.4 °F 93% 29.68 in 1.0 mi South 10.4 mph - 0.00 in Snow Light Snow
4:48 AM 30.2 °F 21.9 °F 28.4 °F 93% 29.68 in 0.8 mi South 9.2 mph - 0.00 in Snow Light Snow
4:53 AM 30.9 °F 22.8 °F 30.0 °F 96% 29.65 in 0.8 mi South 9.2 mph - 0.00 in Snow Light Snow
5:04 AM 30.2 °F 21.9 °F 30.2 °F 100% 29.67 in 0.5 mi South 9.2 mph - 0.02 in Fog , Snow Snow
5:26 AM 30.2 °F 22.6 °F 28.4 °F 93% 29.65 in 0.5 mi SSE 8.1 mph - 0.05 in Fog , Snow Snow
5:53 AM 30.2 °F 21.9 °F 28.4 °F 93% 29.63 in 0.8 mi SSE 9.2 mph - N/A Snow Light Snow
5:59 AM 30.2 °F 21.9 °F 28.4 °F 93% 29.63 in 1.0 mi SSE 9.2 mph - 0.00 in Snow Light Snow
6:15 AM 30.2 °F 21.3 °F 28.4 °F 93% 29.61 in 1.5 mi SE 10.4 mph - 0.01 in Snow Light Snow
6:30 AM 28.4 °F 18.5 °F 28.4 °F 100% 29.61 in 2.0 mi SE 11.5 mph - 0.01 in Snow Light Snow
6:35 AM 28.4 °F 18.0 °F 28.4 °F 100% 29.60 in 3.0 mi SE 12.7 mph - 0.01 in Snow Light Snow
6:48 AM 28.4 °F 17.5 °F 28.4 °F 100% 29.60 in 1.8 mi SE 13.8 mph - 0.01 in Snow Light Snow
6:49 AM 28.9 °F 18.2 °F 28.0 °F 96% 29.58 in 1.5 mi SE 13.8 mph - 0.01 in Snow Light Snow
7:03 AM 28.4 °F 19.1 °F 28.4 °F 100% 29.60 in 0.8 mi SE 10.4 mph - 0.00 in Snow Light Snow
7:25 AM 28.4 °F 18.5 °F 28.4 °F 100% 29.60 in 0.8 mi SSE 11.5 mph - 0.00 in Snow Light Snow
7:53 AM 30.0 °F 21.7 °F 28.0 °F 92% 29.55 in 0.8 mi SSE 9.2 mph - 0.02 in Snow Light Snow
8:11 AM 30.2 °F 20.8 °F 28.4 °F 93% 29.57 in 0.5 mi SSE 11.5 mph - 0.00 in Fog , Snow Snow
8:26 AM 30.2 °F 20.8 °F 28.4 °F 93% 29.56 in 0.8 mi SSE 11.5 mph - 0.00 in Snow Light Snow
8:44 AM 30.2 °F 21.9 °F 28.4 °F 93% 29.56 in 0.8 mi SSE 9.2 mph - 0.00 in Snow Light Snow
8:53 AM 30.0 °F 21.7 °F 28.9 °F 96% 29.52 in 0.8 mi SSE 9.2 mph - 0.00 in Snow Light Snow
9:15 AM 30.2 °F 24.3 °F 30.2 °F 100% 29.54 in 0.5 mi SSE 5.8 mph - 0.01 in Fog , Snow Snow
9:53 AM 32.0 °F 24.8 °F 30.9 °F 96% 29.49 in 0.2 mi SSE 8.1 mph - 0.03 in Fog , Snow Snow
10:53 AM 32.0 °F 26.4 °F 30.9 °F 96% 29.46 in 0.2 mi South 5.8 mph - 0.05 in Fog , Snow Snow
11:53 AM 32.0 °F 22.1 °F 32.0 °F 100% 29.40 in 0.5 mi South 13.8 mph - 0.01 in Fog , Snow Light Snow
12:00 PM 33.8 °F 23.5 °F 32.0 °F 93% 29.44 in 2.0 mi South 16.1 mph - 0.00 in Snow Light Snow
12:08 PM 33.8 °F 24.8 °F 32.0 °F 93% 29.43 in 6.0 mi South 12.7 mph - 0.00 in   Overcast
12:53 PM 33.1 °F 23.9 °F 32.0 °F 96% 29.36 in 10.0 mi SSW 12.7 mph - 0.00 in   Overcast
1:50 PM 33.8 °F 27.0 °F 30.2 °F 87% 29.37 in 10.0 mi South 8.1 mph - N/A   Overcast
1:53 PM 33.1 °F 26.1 °F 30.9 °F 92% 29.32 in 10.0 mi South 8.1 mph - N/A   Overcast
2:53 PM 33.1 °F 26.1 °F 30.9 °F 92% 29.31 in 10.0 mi SSW 8.1 mph - N/A   Overcast
3:10 PM 33.8 °F 27.7 °F 30.2 °F 87% 29.37 in 2.0 mi SW 6.9 mph - 0.00 in Snow Light Snow
3:17 PM 33.8 °F 28.6 °F 30.2 °F 87% 29.37 in 1.2 mi SSW 5.8 mph - 0.00 in Snow Light Snow
3:37 PM 33.8 °F 30.8 °F 32.0 °F 93% 29.37 in 0.8 mi West 3.5 mph - 0.00 in Snow Light Snow
3:53 PM 33.1 °F 28.7 °F 32.0 °F 96% 29.31 in 1.2 mi SW 4.6 mph - 0.00 in Snow Light Snow
3:58 PM 32.0 °F 27.5 °F 32.0 °F 100% 29.36 in 3.0 mi SSW 4.6 mph - 0.00 in Snow Light Snow
4:07 PM 32.0 °F 27.5 °F 32.0 °F 100% 29.36 in 9.0 mi SSW 4.6 mph - 0.00 in   Overcast
4:42 PM 32.0 °F 27.5 °F 30.2 °F 93% 29.35 in 1.5 mi South 4.6 mph - 0.00 in   Overcast
4:49 PM 32.0 °F 27.5 °F 30.2 °F 93% 29.35 in 0.5 mi South 4.6 mph - 0.00 in Fog Fog
4:50 PM 32.0 °F 27.5 °F 30.9 °F 96% 29.31 in 0.5 mi South 4.6 mph - 0.00 in Fog Fog
5:00 PM 30.2 °F 24.3 °F 30.2 °F 100% 29.35 in 0.5 mi SSW 5.8 mph - N/A Fog Light Freezing Fog
5:21 PM 30.2 °F 26.7 °F 30.2 °F 100% 29.36 in 2.0 mi West 3.5 mph - N/A   Overcast
5:28 PM 30.2 °F - 30.2 °F 100% 29.37 in 0.8 mi Calm Calm - N/A   Overcast
5:51 PM 30.2 °F - 30.2 °F 100% 29.38 in 2.0 mi Calm Calm - N/A   Overcast
5:53 PM 30.9 °F 27.5 °F 30.0 °F 96% 29.34 in 5.0 mi NW 3.5 mph - N/A   Overcast
6:03 PM 30.2 °F 25.4 °F 30.2 °F 100% 29.37 in 9.0 mi NNW 4.6 mph - N/A   Overcast
6:53 PM 30.9 °F 26.2 °F 30.0 °F 96% 29.36 in 10.0 mi NNW 4.6 mph - N/A   Overcast
7:53 PM 30.9 °F - 28.9 °F 92% 29.37 in 9.0 mi Calm Calm - N/A   Overcast
8:53 PM 28.4 °F - 26.6 °F 93% 29.42 in 5.0 mi Calm Calm - N/A   Overcast
9:07 PM 28.4 °F - 28.4 °F 100% 29.43 in 2.5 mi Calm Calm - N/A   Overcast
9:10 PM 28.4 °F - 28.4 °F 100% 29.43 in 0.8 mi Calm Calm - N/A   Overcast
9:22 PM 28.4 °F - 26.6 °F 93% 29.43 in 0.2 mi Calm Calm - N/A Fog Light Freezing Fog
9:50 PM 26.6 °F 22.6 °F 26.6 °F 100% 29.44 in 2.0 mi Variable 3.5 mph - N/A   Overcast
9:53 PM 27.0 °F 23.0 °F 26.1 °F 96% 29.42 in 7.0 mi North 3.5 mph - N/A   Overcast
10:53 PM 28.0 °F 15.7 °F 21.0 °F 75% 29.47 in 10.0 mi NNW 17.3 mph - N/A   Overcast
11:53 PM 25.0 °F 13.6 °F 18.0 °F 75% 29.51 in 10.0 mi NNW 12.7 mph - N/A   Mostly Cloudy